Location: Aleksandria
(48.6657°N, 33.1137°E)
Time: 23:36:06
(UTC+02:00)

BlueWalker 3 - Pass Details

Date: 01 December 2023
Orbit: 485 x 499 km, 53.2° (Epoch: 03 March)

Event Time Altitude Azimuth Distance (km) Brightness Sun altitude
Exits shadow 04:54:16 70° 56° (NE) 533 2.0 -23.0°
Drops below altitude 10° 04:57:51 10° 108° (ESE) 1,691 5.7 -22.4°
Sets 05:00:02 0° 111° (ESE) 2,567 6.9 -22.0°
